Tiempo cada hora Al Hilla

Hoy, 3 Agosto, Martes

Tiempo Temperatura Precipitaciones Viento Presión Humedad
00:00 +42°C° 0 mm 3 mps 745 mmHg 11%
01:00 +40°C° 0 mm 3 mps 745 mmHg 12%
02:00 +40°C° 0 mm 3 mps 744 mmHg 12%
03:00 +39°C° 0 mm 3 mps 744 mmHg 13%
04:00 +39°C° 0 mm 3 mps 745 mmHg 13%
05:00 +39°C° 0 mm 3 mps 745 mmHg 13%
06:00 +38°C° 0 mm 3 mps 746 mmHg 13%
07:00 +41°C° 0 mm 4 mps 746 mmHg 13%
08:00 +44°C° 0 mm 4 mps 746 mmHg 12%
09:00 +47°C° 0 mm 5 mps 746 mmHg 12%
10:00 +48°C° 0 mm 5 mps 746 mmHg 11%
11:00 +49°C° 0 mm 6 mps 746 mmHg 10%
12:00 +52°C° 0 mm 6 mps 746 mmHg 9%
13:00 +52°C° 0 mm 7 mps 746 mmHg 8%
14:00 +52°C° 0 mm 8 mps 745 mmHg 8%
15:00 +52°C° 0 mm 8 mps 745 mmHg 7%
16:00 +52°C° 0 mm 8 mps 745 mmHg 8%
17:00 +51°C° 0 mm 7 mps 745 mmHg 9%
18:00 +51°C° 0 mm 6 mps 745 mmHg 9%
19:00 +48°C° 0 mm 5 mps 745 mmHg 11%
20:00 +47°C° 0 mm 5 mps 746 mmHg 12%
21:00 +44°C° 0 mm 4 mps 746 mmHg 13%
22:00 +43°C° 0 mm 4 mps 746 mmHg 15%
23:00 +42°C° 0 mm 4 mps 747 mmHg 16%

Mañana, 4 Agosto, Miércoles

Tiempo Temperatura Precipitaciones Viento Presión Humedad
00:00 +41°C° 0 mm 4 mps 747 mmHg 18%
01:00 +40°C° 0 mm 3 mps 747 mmHg 19%
02:00 +39°C° 0 mm 3 mps 747 mmHg 21%
03:00 +39°C° 0 mm 3 mps 746 mmHg 22%
04:00 +39°C° 0 mm 3 mps 747 mmHg 22%
05:00 +39°C° 0 mm 3 mps 747 mmHg 22%
06:00 +38°C° 0 mm 3 mps 748 mmHg 22%
07:00 +42°C° 0 mm 4 mps 748 mmHg 18%
08:00 +44°C° 0 mm 4 mps 748 mmHg 15%
09:00 +47°C° 0 mm 5 mps 748 mmHg 12%
10:00 +49°C° 0 mm 5 mps 748 mmHg 11%
11:00 +50°C° 0 mm 5 mps 748 mmHg 11%
12:00 +52°C° 0 mm 5 mps 747 mmHg 10%
13:00 +52°C° 0 mm 6 mps 747 mmHg 10%
14:00 +52°C° 0 mm 7 mps 747 mmHg 10%
15:00 +52°C° 0 mm 7 mps 746 mmHg 10%
16:00 +51°C° 0 mm 7 mps 746 mmHg 10%
17:00 +51°C° 0 mm 6 mps 746 mmHg 10%
18:00 +51°C° 0 mm 6 mps 746 mmHg 10%
19:00 +48°C° 0 mm 5 mps 747 mmHg 11%
20:00 +47°C° 0 mm 4 mps 747 mmHg 12%
21:00 +44°C° 0 mm 3 mps 747 mmHg 14%
22:00 +44°C° 0 mm 4 mps 747 mmHg 15%
23:00 +45°C° 0 mm 5 mps 747 mmHg 16%

Pasado mañana, 5 Agosto, Jueves

Tiempo Temperatura Precipitaciones Viento Presión Humedad
00:00 +43°C° 0 mm 5 mps 747 mmHg 17%
01:00 +43°C° 0 mm 5 mps 747 mmHg 16%
02:00 +42°C° 0 mm 4 mps 747 mmHg 16%
03:00 +42°C° 0 mm 3 mps 747 mmHg 16%
04:00 +42°C° 0 mm 4 mps 747 mmHg 16%
05:00 +42°C° 0 mm 4 mps 747 mmHg 16%
06:00 +41°C° 0 mm 4 mps 747 mmHg 17%
07:00 +43°C° 0 mm 5 mps 747 mmHg 15%
08:00 +46°C° 0 mm 7 mps 747 mmHg 13%
09:00 +49°C° 0 mm 8 mps 748 mmHg 11%
10:00 +50°C° 0 mm 7 mps 747 mmHg 11%
11:00 +51°C° 0 mm 7 mps 747 mmHg 10%
12:00 +53°C° 0 mm 6 mps 747 mmHg 9%
13:00 +53°C° 0 mm 6 mps 746 mmHg 9%
14:00 +52°C° 0 mm 6 mps 746 mmHg 9%
15:00 +52°C° 0 mm 6 mps 746 mmHg 9%
16:00 +50°C° 0 mm 5 mps 746 mmHg 10%
17:00 +49°C° 0 mm 5 mps 745 mmHg 10%
18:00 +49°C° 0 mm 4 mps 745 mmHg 11%
19:00 +48°C° 0 mm 4 mps 745 mmHg 12%
20:00 +47°C° 0 mm 4 mps 745 mmHg 12%
21:00 +46°C° 0 mm 5 mps 745 mmHg 13%
22:00 +45°C° 0 mm 5 mps 745 mmHg 13%
23:00 +45°C° 0 mm 5 mps 745 mmHg 14%

6 Agosto, Viernes

Tiempo Temperatura Precipitaciones Viento Presión Humedad
00:00 +45°C° 0 mm 5 mps 745 mmHg 15%
01:00 +43°C° 0 mm 5 mps 745 mmHg 15%
02:00 +43°C° 0 mm 5 mps 745 mmHg 15%
03:00 +42°C° 0 mm 5 mps 745 mmHg 16%
04:00 +42°C° 0 mm 4 mps 745 mmHg 16%
05:00 +42°C° 0 mm 4 mps 745 mmHg 16%
06:00 +40°C° 0 mm 3 mps 745 mmHg 16%
07:00 +43°C° 0 mm 4 mps 746 mmHg 15%
08:00 +45°C° 0 mm 4 mps 746 mmHg 14%
09:00 +48°C° 0 mm 5 mps 746 mmHg 12%
10:00 +49°C° 0 mm 5 mps 746 mmHg 11%
11:00 +50°C° 0 mm 5 mps 746 mmHg 10%
12:00 +53°C° 0 mm 5 mps 746 mmHg 9%
13:00 +53°C° 0 mm 6 mps 745 mmHg 8%
14:00 +53°C° 0 mm 6 mps 745 mmHg 8%
15:00 +53°C° 0 mm 7 mps 744 mmHg 8%
16:00 +53°C° 0 mm 6 mps 744 mmHg 8%
17:00 +52°C° 0 mm 5 mps 744 mmHg 8%
18:00 +50°C° 0 mm 4 mps 744 mmHg 8%
19:00 +49°C° 0 mm 4 mps 744 mmHg 10%
20:00 +46°C° 0 mm 3 mps 745 mmHg 11%
21:00 +45°C° 0 mm 2 mps 745 mmHg 12%
22:00 +44°C° 0 mm 3 mps 745 mmHg 13%
23:00 +43°C° 0 mm 3 mps 745 mmHg 14%

7 Agosto, Sábado

Tiempo Temperatura Precipitaciones Viento Presión Humedad
00:00 +43°C° 0 mm 4 mps 745 mmHg 14%
01:00 +42°C° 0 mm 4 mps 745 mmHg 14%
02:00 +42°C° 0 mm 3 mps 745 mmHg 14%
03:00 +40°C° 0 mm 3 mps 745 mmHg 14%
04:00 +40°C° 0 mm 3 mps 745 mmHg 15%
05:00 +39°C° 0 mm 3 mps 746 mmHg 16%
06:00 +39°C° 0 mm 3 mps 746 mmHg 17%
07:00 +42°C° 0 mm 4 mps 746 mmHg 15%
08:00 +44°C° 0 mm 4 mps 747 mmHg 14%
09:00 +47°C° 0 mm 5 mps 747 mmHg 12%
10:00 +49°C° 0 mm 5 mps 747 mmHg 11%
11:00 +50°C° 0 mm 4 mps 747 mmHg 9%
12:00 +52°C° 0 mm 4 mps 747 mmHg 8%
13:00 +53°C° 0 mm 5 mps 746 mmHg 7%
14:00 +54°C° 0 mm 6 mps 746 mmHg 7%
15:00 +55°C° 0 mm 7 mps 746 mmHg 6%
16:00 +53°C° 0 mm 6 mps 746 mmHg 6%
17:00 +53°C° 0 mm 5 mps 746 mmHg 6%
18:00 +52°C° 0 mm 5 mps 746 mmHg 6%
19:00 +49°C° 0 mm 4 mps 746 mmHg 7%
20:00 +48°C° 0 mm 4 mps 747 mmHg 8%
21:00 +45°C° 0 mm 3 mps 747 mmHg 8%
22:00 +44°C° 0 mm 3 mps 747 mmHg 9%
23:00 +44°C° 0 mm 4 mps 747 mmHg 10%

8 Agosto, Domingo

Tiempo Temperatura Precipitaciones Viento Presión Humedad
00:00 +43°C° 0 mm 4 mps 747 mmHg 11%
01:00 +42°C° 0 mm 4 mps 747 mmHg 12%
02:00 +41°C° 0 mm 4 mps 748 mmHg 13%
03:00 +40°C° 0 mm 4 mps 748 mmHg 14%
04:00 +40°C° 0 mm 5 mps 748 mmHg 14%
05:00 +39°C° 0 mm 5 mps 748 mmHg 15%
06:00 +39°C° 0 mm 5 mps 749 mmHg 15%
07:00 +41°C° 0 mm 6 mps 749 mmHg 12%
08:00 +45°C° 0 mm 6 mps 749 mmHg 9%
09:00 +49°C° 0 mm 7 mps 749 mmHg 6%
10:00 +50°C° 0 mm 7 mps 749 mmHg 6%
11:00 +51°C° 0 mm 7 mps 749 mmHg 6%
12:00 +53°C° 0 mm 7 mps 749 mmHg 5%
13:00 +53°C° 0 mm 7 mps 749 mmHg 6%
14:00 +53°C° 0 mm 7 mps 749 mmHg 6%
15:00 +53°C° 0 mm 7 mps 749 mmHg 6%
16:00 +52°C° 0 mm 6 mps 749 mmHg 6%
17:00 +52°C° 0 mm 5 mps 749 mmHg 7%
18:00 +50°C° 0 mm 5 mps 749 mmHg 7%
19:00 +48°C° 0 mm 4 mps 749 mmHg 8%
20:00 +45°C° 0 mm 4 mps 749 mmHg 9%
21:00 +43°C° 0 mm 4 mps 749 mmHg 10%
22:00 +42°C° 0 mm 4 mps 750 mmHg 11%
23:00 +42°C° 0 mm 4 mps 750 mmHg 11%
Mostrar más

Necesitamos Su Consentimiento

Meteoprog y nuestros Proveedores de Servicios pueden almacenar y acceder a sus datos personales como cookies, identificadores de dispositivo u otras tecnologías similares de su dispositivo y procesar dichos datos para personalizar contenido y anuncios, además de ofrecer funciones de redes sociales y analizar el tráfico.

  • Almacenar y/o acceder a información en su dispositivo

    Se puede almacenar o acceder a cookies, identificadores de dispositivo u otra información de su dispositivo para los fines anteriormente indicados.

  • Anuncios y contenido personalizados, medición de anuncios y contenido, percepciones del público, y desarrollo de productos

    Los anuncios y el contenido pueden personalizarse en base a su perfil. Se pueden añadir más datos para personalizar mejor los anuncios y contenidos. Se puede medir el rendimiento de los anuncios y contenidos. Se puede obtener la percepción sobre el público que ha visto los anuncios y contenidos. Dichos datos pueden usarse para desarrollar o mejorar la experiencia del usuario, sistemas y software.

Al hacer clic en ‘Estoy De Acuerdo’ usted permitirá el uso de las cookies, identificadores de dispositivo, balizas web u otras tecnologías similares indicadas. Su configuración puede cambiarse desde el navegador de su dispositivo.

Para ciertos fines, los intereses legítimos pueden ser considerados por encima del consentimiento. Puede leer más sobre ello en nuestra Política de Privacidad y Cookies.